Weather History for Texarkana, AR

Change the Weather History Date:

Tuesday, March 19, 2013

  Actual Average Record
Temperature  
Mean Temperature 52 °F 57 °F  
Max Temperature 66 °F 68 °F 88 °F (1907)
Min Temperature 37 °F 45 °F 18 °F (1923)
Degree Days  
Heating Degree Days 13 9  
Month to date heating degree days 222 211  
Since 1 July heating degree days 2168 2405  
Cooling Degree Days 0 1  
Month to date cooling degree days 8 7  
Year to date cooling degree days 12 11  
Growing Degree Days 2 (Base 50)    
Moisture  
Dew Point 36 °F    
Average Humidity 63    
Maximum Humidity 100    
Minimum Humidity 26    
Precipitation  
Precipitation 0.00 in 0.13 in 1.81 in (2006)
Month to date precipitation 0.91 2.61  
Year to date precipitation 6.36 10.00  
Snow  
Snow 0.00 in - - ()
Month to date snowfall 0.0  
Since 1 July snowfall 2.1  
Snow Depth 0.00 in    
Sea Level Pressure  
Sea Level Pressure 30.08 in    
Wind  
Wind Speed 6 mph (ENE)    
Max Wind Speed 15 mph    
Max Gust Speed 22 mph    
Visibility 10 miles    
Events Rain    
T = Trace of Precipitation, MM = Missing Value Source: NWS Daily Summary

Daily Weather History Graph

Daily Weather History Graph

Search for Another Location

Airport:

Trip Planner

Search our weather history database for the weather conditions in past years. The results will help you decide how hot, cold, wet, or windy it might be!

Date:

Astronomy

Mar. 19, 2013 Rise Set
Actual Time 7:20 AM CDT 7:27 PM CDT
Civil Twilight 6:55 AM CDT 7:51 PM CDT
Nautical Twilight 6:26 AM CDT 8:20 PM CDT
Astronomical Twilight 5:57 AM CDT 8:50 PM CDT
Moon 12:27 PM CDT (3/19) 1:58 AM CDT (3/19)
Length of Visible Light 12h 55m
Length of Day
12h 06m
Waxing Crescent, 50% of the Moon is Illuminated
Mar 19
Waxing Crescent
Mar 19
First Quarter
Mar 27
Full
Apr 2
Last Quarter
Apr 10
New

Hourly Weather History & Observations

Time (CDT) Temp. Windchill Dew Point Humidity Pressure Visibility Wind Dir Wind Speed Gust Speed Precip Events Conditions
12:53 AM 46.0 °F 43.9 °F 41.0 °F 83% 30.04 in 10.0 mi ENE 4.6 mph - N/A   Clear
1:53 AM 48.0 °F - 41.0 °F 77% 30.04 in 10.0 mi Calm Calm - N/A   Clear
2:53 AM 45.0 °F 41.8 °F 41.0 °F 86% 30.04 in 10.0 mi ENE 5.8 mph - N/A   Clear
3:53 AM 45.0 °F 43.5 °F 41.0 °F 86% 30.02 in 10.0 mi ENE 3.5 mph - N/A   Clear
4:53 AM 44.1 °F 42.5 °F 39.9 °F 85% 30.00 in 10.0 mi East 3.5 mph - N/A   Clear
5:53 AM 43.0 °F 41.3 °F 39.0 °F 86% 30.02 in 10.0 mi East 3.5 mph - N/A   Clear
6:53 AM 41.0 °F - 39.0 °F 93% 30.08 in 10.0 mi Calm Calm - N/A   Clear
7:53 AM 39.9 °F - 39.0 °F 97% 30.09 in 10.0 mi Calm Calm - N/A   Clear
8:53 AM 45.0 °F 42.6 °F 41.0 °F 86% 30.12 in 10.0 mi NE 4.6 mph - N/A   Clear
9:53 AM 51.1 °F - 39.0 °F 63% 30.15 in 10.0 mi East 6.9 mph - 0.00 in Rain Light Rain
10:53 AM 55.9 °F - 36.0 °F 47% 30.15 in 10.0 mi East 9.2 mph - 0.00 in   Clear
11:39 AM 60.8 °F - 32.0 °F 34% 30.15 in 10.0 mi ESE 11.5 mph 19.6 mph N/A   Clear
11:53 AM 60.1 °F - 30.9 °F 33% 30.14 in 10.0 mi East 10.4 mph 18.4 mph N/A   Clear
12:53 PM 63.0 °F - 30.0 °F 29% 30.12 in 10.0 mi Variable 6.9 mph 18.4 mph N/A   Clear
1:53 PM 63.0 °F - 30.0 °F 29% 30.09 in 10.0 mi ENE 12.7 mph 17.3 mph N/A   Clear
2:53 PM 66.0 °F - 30.9 °F 27% 30.06 in 10.0 mi Variable 6.9 mph - N/A   Clear
3:53 PM 64.0 °F - 32.0 °F 30% 30.04 in 10.0 mi East 6.9 mph - N/A   Clear
4:53 PM 64.0 °F - 32.0 °F 30% 30.04 in 10.0 mi ENE 10.4 mph - N/A   Clear
5:53 PM 63.0 °F - 32.0 °F 31% 30.04 in 10.0 mi ENE 9.2 mph - N/A   Clear
7:53 PM 59.0 °F - 34.0 °F 39% 30.06 in 10.0 mi ENE 4.6 mph - N/A   Clear
8:53 PM 57.9 °F - 36.0 °F 44% 30.09 in 10.0 mi NE 8.1 mph - N/A   Clear
9:53 PM 55.9 °F - 36.0 °F 47% 30.12 in 10.0 mi ENE 6.9 mph - N/A   Clear
10:53 PM 54.0 °F - 35.1 °F 49% 30.14 in 10.0 mi ENE 10.4 mph 16.1 mph N/A   Clear
11:53 PM 53.1 °F - 34.0 °F 48% 30.16 in 10.0 mi ENE 9.2 mph - N/A   Clear